Wind_Speed
17 15 14 15 15 14 15 15 13 11 11 12 14 16 18 20 21 21 20 20 21 18 17 15 14 13 11 10 8 6 6 6 7 8 11 13 15 15 16 18 17 16 15 14
18 15 16 17 17 16 15 15 13 12 13 15 17 17 18 20 21 20 20 18 19 18 17 14 13 12 10 9 9 6 6 6 7 9 11 13 15 15 16 18 18 17 15 15
18 17 19 18 18 17 16 15 14 13 14 17 19 20 20 21 20 17 16 16 17 17 14 13 11 10 9 8 7 4 6 7 8 9 11 13 15 17 17 18 18 17 16 15
20 19 20 19 18 17 16 14 15 14 15 17 19 21 20 21 19 17 15 15 17 16 14 12 10 8 8 7 6 4 6 7 7 9 11 14 16 17 17 18 18 18 17 17
19 20 21 20 18 17 15 14 15 16 18 19 19 20 18 20 19 16 15 14 15 14 12 11 9 8 7 7 6 4 5 7 7 9 11 15 18 18 18 18 18 18 18 17
19 20 20 19 18 16 15 16 16 17 19 19 16 18 18 19 17 15 14 13 12 11 11 10 9 8 7 7 5 4 5 6 7 9 11 15 17 18 18 17 17 18 18 18
20 20 19 18 16 14 16 17 18 18 17 15 15 17 17 18 19 16 13 12 10 9 9 9 9 8 7 7 5 4 4 5 7 10 11 14 16 18 18 18 18 18 18 19
20 18 17 16 15 12 13 16 18 19 17 14 14 16 17 18 17 13 11 9 8 8 8 8 8 7 7 7 5 3 3 5 7 10 11 14 16 18 18 19 19 19 19 19
19 18 18 17 16 14 13 14 16 18 19 18 17 16 15 15 14 13 10 7 7 7 6 7 7 7 7 6 5 3 2 3 5 9 11 14 16 17 18 19 19 19 19 19
18 20 20 19 18 15 14 12 16 18 19 20 19 16 16 16 14 13 11 9 7 6 6 6 6 6 6 6 5 4 3 3 5 7 10 13 15 16 18 19 19 19 19 19
19 21 21 20 18 16 14 14 16 16 18 20 20 18 16 14 13 13 11 9 6 5 6 6 5 5 5 5 5 4 4 3 4 6 8 12 15 16 18 19 19 18 18 18
21 22 22 22 22 20 18 17 17 18 17 18 20 19 18 16 14 12 10 8 6 5 5 5 5 5 6 5 5 4 4 4 5 6 7 10 13 16 17 18 18 18 18 18
26 26 25 24 25 24 22 22 22 21 20 20 20 20 18 17 15 14 11 9 8 7 6 6 5 4 5 5 5 4 4 4 4 5 7 9 10 13 16 17 17 18 18 19
32 31 29 27 28 28 27 27 26 25 24 24 23 22 20 18 16 14 12 10 9 9 9 8 7 5 5 5 5 4 4 4 5 5 6 9 10 11 13 16 17 17 18 19
36 34 32 30 30 32 31 31 31 29 28 28 26 25 23 21 18 16 14 13 11 11 11 10 10 8 7 6 5 4 4 4 5 5 5 7 9 10 12 14 15 16 18 19
41 38 35 33 33 34 34 32 32 32 31 31 30 29 27 25 22 20 18 16 15 15 14 12 12 12 9 7 7 7 6 6 6 6 6 6 7 8 10 12 13 14 16 17
42 40 38 36 35 35 36 34 34 34 34 33 33 31 30 27 26 24 22 20 20 19 18 17 15 14 12 10 9 9 8 8 8 8 8 8 9 9 9 11 13 14 15 16
43 41 39 38 36 38 36 36 37 38 37 35 34 34 32 29 27 26 25 23 24 24 22 21 18 16 15 12 11 10 10 10 10 9 9 9 10 11 11 12 13 15 16 17
43 42 40 38 36 36 35 36 38 39 38 36 36 35 33 31 30 28 28 27 26 26 25 24 22 20 17 15 14 13 12 12 12 12 12 12 13 14 14 14 15 16 17 18
42 42 41 39 37 35 33 35 37 38 38 36 35 34 34 33 32 31 30 30 29 29 26 24 23 21 19 18 17 16 15 14 14 14 14 14 15 15 15 16 17 17 18 18
38 39 39 37 36 34 32 33 35 37 37 35 34 33 33 33 32 32 32 31 30 29 28 26 23 22 21 19 20 19 18 17 17 16 16 17 17 17 17 17 17 18 19 20
35 37 37 35 35 34 31 31 33 34 34 34 33 33 33 33 33 32 32 31 31 30 27 26 25 23 22 21 22 21 20 20 20 19 19 19 19 19 19 19 19 20 21 22
34 35 36 35 34 32 30 30 32 33 34 34 34 33 33 33 32 32 31 30 30 30 29 28 26 25 24 23 23 23 23 22 22 21 21 20 20 20 21 21 21 23 24 26
33 34 33 34 34 33 30 30 30 31 31 31 31 31 31 32 31 31 31 30 29 28 27 26 26 26 26 26 25 24 24 23 23 23 23 23 23 23 23 24 24 25 26 28
34 33 33 32 30 30 29 30 30 29 29 30 31 31 31 32 31 31 30 29 29 27 25 26 26 26 26 26 25 25 25 24 24 24 25 25 25 24 24 25 26 27 28 29
32 31 32 32 30 31 30 29 29 28 28 27 28 28 28 28 28 28 29 28 26 26 25 25 25 25 25 25 24 24 24 25 25 25 26 26 25 25 26 27 28 29 30 30
Wind_Direction
272 274 274 269 267 264 262 263 265 266 273 281 287 291 295 299 301 305 311 317 326 328 326 325 329 331 330 322 308 292 267 260 239 220 214 213 207 203 201 199 197 196 196 198
267 268 265 265 265 263 264 265 266 265 264 270 278 282 286 290 297 302 307 315 324 328 324 326 332 333 333 326 316 287 251 251 239 228 219 212 206 204 198 195 196 198 199 200
262 260 262 264 266 265 263 263 266 267 265 264 271 276 281 286 291 296 307 317 327 329 331 331 330 334 335 325 315 289 247 247 240 227 218 209 207 201 197 195 195 200 202 202
259 258 260 261 263 264 262 264 264 263 266 269 272 277 278 281 284 288 300 313 325 327 331 336 332 334 333 325 309 272 250 243 236 225 215 205 200 199 198 197 199 203 206 205
256 254 255 257 257 258 261 263 261 261 266 271 272 277 283 283 283 284 297 310 320 328 333 333 331 330 329 328 317 275 248 234 233 223 210 203 201 199 200 201 203 205 205 205
252 252 255 257 256 255 256 260 261 262 264 267 271 278 281 283 280 283 292 300 311 323 331 336 337 335 333 333 319 281 248 236 230 219 208 202 201 202 205 206 206 206 206 207
247 247 250 250 250 254 255 257 260 259 262 264 271 279 283 286 283 282 286 295 309 324 333 335 343 345 345 340 327 293 248 240 225 216 211 207 206 206 209 211 209 208 208 209
244 240 240 242 247 251 252 256 259 263 265 265 269 281 291 295 292 283 288 299 314 328 328 333 341 346 348 351 345 311 255 243 227 219 216 211 210 208 209 210 207 209 211 212
243 233 228 232 233 237 242 252 260 263 262 265 270 277 290 297 297 294 291 295 314 321 324 333 342 347 350 355 356 336 295 254 227 215 215 212 211 207 206 207 206 208 210 213
241 231 227 228 229 233 239 249 255 255 258 263 268 277 289 294 292 295 295 297 308 319 319 328 337 343 348 351 351 333 304 276 239 222 218 210 209 206 206 207 206 207 211 214
236 230 219 220 222 224 229 240 251 257 259 265 270 275 284 294 299 296 291 288 297 312 322 329 336 336 343 348 345 328 296 271 246 227 217 209 209 208 208 209 210 211 212 214
232 230 221 216 219 222 227 234 241 250 258 263 266 271 277 281 293 296 296 296 297 298 313 319 329 337 343 343 336 328 306 272 250 232 220 212 211 210 210 210 213 214 216 218
233 234 231 222 222 226 229 232 237 245 254 259 261 267 270 272 283 286 285 284 287 285 288 295 306 322 334 336 332 322 315 293 262 237 220 213 213 215 214 213 216 218 221 223
231 235 234 231 228 230 232 235 239 244 249 254 257 261 264 269 274 277 281 283 285 286 286 291 298 306 312 317 322 319 304 287 270 254 238 225 222 218 218 221 220 221 224 224
230 232 236 237 236 235 236 239 241 245 250 251 254 257 259 264 270 275 279 280 282 286 287 286 294 295 301 297 300 301 298 287 274 266 254 237 230 223 222 222 223 225 227 227
232 234 236 238 240 240 241 243 245 246 250 252 254 254 256 259 265 269 272 276 280 283 291 291 290 290 292 294 295 296 290 285 275 264 260 248 240 234 232 232 232 233 233 236
235 238 239 239 240 242 244 245 247 249 250 254 255 255 256 258 262 265 267 274 281 280 282 285 288 286 281 280 282 284 278 276 271 266 259 252 246 241 243 244 239 240 240 243
238 240 242 243 242 242 243 246 248 250 252 254 254 254 257 260 263 266 268 271 273 278 279 281 281 277 275 272 271 273 272 269 267 268 268 264 261 255 251 250 249 247 246 249
237 240 243 244 244 244 243 244 246 248 251 252 253 254 255 257 262 266 268 271 273 275 277 275 272 272 270 266 267 270 268 266 264 263 265 266 266 263 260 259 259 256 255 256
235 238 242 245 246 245 241 241 244 246 248 249 252 255 256 257 261 268 271 270 270 270 270 267 264 263 262 264 264 266 264 265 264 265 264 265 267 270 270 266 266 266 264 265
233 236 240 243 246 245 241 240 242 245 248 250 253 257 258 259 263 266 268 268 268 268 265 262 260 255 260 265 266 267 263 262 263 265 266 263 266 270 271 270 270 271 273 272
234 236 238 241 243 244 243 241 242 246 249 251 253 256 259 262 265 266 267 268 265 267 261 256 259 259 260 262 265 265 263 261 262 264 264 263 266 268 269 268 271 274 276 276
233 234 235 238 241 243 243 242 244 247 250 251 253 257 260 262 265 266 267 266 266 262 258 259 260 259 260 261 264 266 266 265 264 265 266 268 270 272 273 273 276 277 278 278
232 232 233 236 240 242 244 244 244 247 250 252 254 256 258 260 263 264 266 265 263 262 259 258 257 258 260 260 260 262 265 264 264 265 270 270 272 274 277 277 278 279 280 281
233 235 234 235 237 240 243 244 244 246 250 254 254 255 258 261 262 262 264 263 263 262 257 257 258 259 258 258 259 262 264 265 266 269 272 273 275 275 276 277 279 280 281 281
231 234 234 235 237 241 241 242 247 251 254 256 257 258 258 258 259 261 263 263 262 259 256 255 256 258 258 258 259 264 265 267 267 270 273 274 275 276 277 277 279 281 282 281
Height
5878 5880 5879 5878 5877 5877 5877 5876 5875 5875 5874 5873 5872 5872 5870 5869 5868 5866 5865 5862 5858 5856 5853 5850 5847 5844 5841 5840 5839 5838 5838 5840 5841 5843 5845 5848 5851 5853 5856 5859 5863 5866 5868 5871
5874 5875 5874 5873 5873 5873 5872 5872 5872 5872 5871 5870 5869 5869 5868 5867 5865 5864 5862 5859 5857 5854 5851 5847 5844 5841 5839 5837 5836 5836 5837 5839 5840 5842 5843 5846 5849 5852 5854 5857 5861 5864 5867 5869
5869 5870 5868 5869 5869 5869 5868 5868 5868 5868 5867 5866 5866 5866 5865 5864 5863 5862 5860 5857 5855 5852 5849 5845 5842 5840 5838 5837 5836 5835 5836 5837 5838 5840 5841 5844 5846 5849 5852 5856 5859 5862 5865 5867
5862 5864 5863 5864 5864 5864 5864 5864 5864 5864 5864 5863 5864 5862 5862 5861 5860 5859 5857 5855 5852 5850 5847 5844 5840 5839 5838 5836 5835 5835 5835 5836 5836 5838 5840 5842 5845 5848 5851 5853 5856 5860 5862 5865
5857 5858 5857 5858 5860 5859 5860 5860 5860 5860 5860 5860 5860 5859 5859 5857 5857 5856 5855 5852 5850 5847 5845 5843 5840 5838 5836 5835 5833 5833 5833 5834 5835 5836 5838 5841 5843 5846 5849 5851 5854 5857 5860 5862
5851 5851 5852 5854 5854 5854 5855 5856 5856 5856 5856 5856 5856 5856 5855 5853 5853 5853 5852 5850 5848 5845 5843 5841 5839 5837 5835 5833 5832 5831 5832 5832 5833 5834 5836 5839 5841 5844 5847 5849 5852 5855 5857 5860
5844 5846 5847 5848 5849 5850 5850 5851 5852 5852 5852 5852 5853 5851 5851 5850 5849 5850 5849 5847 5845 5843 5841 5840 5838 5835 5834 5832 5831 5830 5830 5831 5831 5833 5834 5836 5839 5841 5844 5846 5849 5852 5854 5857
5838 5841 5842 5843 5844 5845 5846 5847 5848 5848 5848 5849 5849 5848 5849 5846 5845 5845 5845 5843 5841 5840 5840 5839 5836 5834 5832 5830 5829 5829 5829 5829 5830 5831 5832 5834 5836 5838 5841 5843 5846 5849 5851 5854
5832 5836 5837 5838 5839 5841 5842 5842 5844 5844 5844 5844 5845 5845 5845 5844 5842 5842 5841 5840 5839 5838 5838 5837 5835 5833 5831 5829 5828 5828 5828 5828 5829 5829 5830 5831 5833 5835 5838 5840 5843 5845 5848 5851
5827 5830 5833 5834 5835 5836 5838 5839 5840 5840 5840 5840 5841 5841 5842 5841 5840 5839 5838 5837 5836 5836 5835 5835 5833 5832 5830 5829 5828 5828 5827 5827 5827 5828 5828 5829 5831 5833 5835 5838 5840 5843 5846 5848
5821 5824 5828 5829 5831 5832 5834 5835 5835 5836 5837 5837 5836 5839 5838 5837 5837 5836 5835 5834 5834 5834 5834 5833 5832 5831 5830 5828 5827 5827 5826 5826 5826 5827 5827 5828 5829 5831 5833 5835 5838 5840 5843 5845
5814 5818 5821 5825 5827 5827 5829 5830 5831 5832 5833 5833 5833 5836 5834 5834 5834 5833 5833 5832 5832 5832 5832 5832 5831 5830 5829 5828 5827 5826 5825 5825 5825 5825 5825 5826 5827 5829 5831 5833 5836 5838 5840 5842
5808 5811 5815 5819 5823 5824 5824 5825 5826 5827 5828 5828 5828 5831 5830 5830 5830 5829 5829 5829 5830 5830 5830 5830 5830 5828 5828 5827 5826 5825 5824 5824 5824 5824 5824 5825 5826 5827 5829 5831 5833 5835 5837 5839
5802 5805 5809 5813 5816 5818 5819 5820 5821 5822 5823 5823 5824 5824 5825 5826 5826 5826 5827 5827 5827 5828 5828 5828 5827 5827 5826 5826 5825 5824 5824 5823 5823 5823 5823 5824 5824 5825 5827 5828 5830 5832 5833 5835
5796 5799 5802 5806 5809 5811 5813 5815 5816 5817 5818 5818 5819 5819 5821 5822 5823 5823 5824 5824 5825 5826 5826 5826 5826 5826 5825 5824 5824 5824 5823 5823 5822 5822 5822 5822 5823 5823 5825 5826 5827 5829 5830 5832
5790 5793 5797 5800 5802 5804 5807 5809 5811 5812 5813 5812 5813 5814 5816 5817 5818 5819 5820 5821 5822 5822 5822 5822 5823 5823 5823 5822 5822 5822 5822 5821 5821 5821 5821 5821 5821 5821 5822 5823 5824 5825 5827 5828
5783 5787 5790 5793 5795 5797 5800 5803 5804 5805 5806 5807 5807 5809 5810 5812 5813 5814 5815 5816 5817 5819 5819 5820 5820 5820 5820 5820 5820 5820 5819 5819 5819 5819 5819 5819 5819 5819 5820 5821 5821 5822 5823 5824
5775 5779 5782 5785 5788 5790 5796 5796 5796 5796 5797 5799 5800 5802 5804 5806 5807 5808 5809 5811 5812 5813 5814 5814 5815 5814 5815 5816 5816 5817 5816 5816 5816 5816 5817 5817 5817 5817 5818 5818 5818 5819 5819 5820
5766 5770 5773 5776 5778 5782 5786 5786 5787 5788 5789 5791 5793 5796 5797 5798 5800 5801 5803 5804 5805 5806 5807 5808 5809 5810 5810 5811 5812 5812 5812 5813 5813 5813 5814 5814 5814 5814 5814 5814 5814 5814 5814 5815
5757 5761 5765 5767 5770 5773 5777 5778 5778 5781 5781 5784 5787 5789 5791 5792 5793 5795 5796 5797 5799 5799 5799 5800 5802 5803 5804 5806 5807 5807 5808 5808 5808 5809 5809 5809 5809 5810 5810 5810 5810 5809 5809 5810
5749 5752 5755 5759 5761 5764 5768 5770 5772 5774 5776 5779 5781 5783 5784 5785 5787 5788 5789 5789 5790 5791 5792 5793 5795 5796 5798 5800 5802 5802 5802 5803 5804 5804 5804 5803 5804 5805 5805 5805 5805 5805 5805 5804
5741 5744 5747 5751 5753 5758 5760 5763 5765 5766 5768 5771 5773 5775 5776 5777 5779 5780 5781 5782 5782 5783 5784 5786 5788 5789 5791 5794 5795 5795 5796 5798 5798 5799 5799 5798 5799 5800 5800 5799 5799 5799 5799 5798
5733 5737 5740 5743 5747 5749 5752 5755 5757 5758 5760 5763 5765 5768 5769 5770 5771 5772 5772 5773 5774 5775 5776 5778 5781 5783 5785 5786 5788 5789 5790 5791 5792 5792 5792 5793 5793 5794 5794 5793 5793 5792 5792 5791
5725 5728 5732 5735 5737 5741 5744 5747 5749 5750 5752 5755 5757 5759 5761 5762 5763 5763 5764 5764 5765 5767 5768 5770 5773 5775 5777 5778 5780 5781 5783 5784 5785 5785 5785 5786 5786 5786 5786 5786 5786 5785 5784 5783
5717 5720 5723 5727 5730 5733 5736 5738 5741 5743 5745 5746 5749 5751 5752 5753 5755 5755 5756 5756 5758 5759 5761 5764 5766 5768 5769 5770 5772 5774 5775 5777 5778 5778 5779 5779 5778 5778 5778 5779 5778 5777 5776 5775
5710 5714 5717 5720 5723 5726 5729 5731 5733 5736 5737 5739 5741 5743 5744 5745 5747 5748 5748 5749 5751 5752 5754 5756 5759 5761 5762 5763 5765 5767 5768 5769 5770 5770 5771 5771 5771 5771 5771 5770 5769 5768 5767 5766